COSMOS 2251 DEB, 34343

Orbit data source: Space-Track

COSMOS 2251 DEB, 34343 is space debris in LEO originally from a launch on Wed, 16 Jun 1993 UTC launched from the Plesetsk Missile And Space Complex (PKMTR). The debris from Iridium 33, an American commercial communications satellite, has been tracked extensively since its accidental collision with the defunct Russian satellite Cosmos 2251 in 2009. This event, occurring at high speed in low Earth orbit (LEO), generated thousands of pieces of space debris, significantly increasing the risk of further collisions. The Iridium 33 debris cloud has impacted space traffic management and orbital debris mitigation strategies, making it a subject of ongoing study in space situational awareness.

Loading next visibility...
Identifier
34343, 1993-036PR
Orbit
LEO
Country
Flag of CISCIS
Related business
Manufacturer
Unknown
Mission
Spacecraft
Bus & Motor
Unknown
Mass
Unknown
Launch date (UTC)
1993-06-16 (33 years ago)
Launch vehicle
Unknown
Launch site
Plesetsk Missile And Space Complex (PKMTR)
Object type
Payload
Rocket body
Debris
Shape & HBR
Unknown shape, 0.1 m
Radar Cross Section
Small (<0.1 m²)

Expand to show TLE details & history
Last TLE update: 9 hours ago

TLE from 9 hours ago
0 COSMOS 2251 DEB
1 34343U 93036PR  26071.27354230  .00008191  00000-0  13272-2 0  9996
2 34343  74.0182 275.6900 0022305 170.4069 306.3726 14.71205032900460
Epoch: 2026-03-12T06:33Z
TLE epoch observation values (Epoch: 2026-03-12T06:33:54.054Z)
Latitude
59.40153°
Longitude
158.49315°
Altitude
657.666 km
Speed
7.539 km/s
True Right ascension
04h 27m 34s
True Declination
59° 14' 54"
Sunlit
Object was in daylight at epoch
Visualization orbit readout
Latitude
Unknown
Longitude
Unknown
Altitude
Unknown
Speed
Unknown
Apparent Right ascension
Unknown
Apparent Declination
Unknown
Sunlit
N/A
Visualization observer readout
Local Sidereal Time
19:32:26
Azimuth
Unknown
Elevation
Unknown
Doppler factor
Unknown
Orbital elements
Apogee altitude
670.498 km
Perigee altitude
639.124 km
Semi-major axis
7,032.948 km
Eccentricity
0.00223
Inclination
74.0182°
RAAN
275.69°
Arg. of periapsis
170.4069°
True anomaly
306.16646°
Mean anomaly
306.3726°
Eccentric anomaly
306.26956°
Mean motion
3.67991 °/min
Orbital period
97.83 mins
BSTAR
0.0013272
Loading maneuver chart data...
Computing Atmospheric mass density...

Documentation

Showing up to 5 results
|